Regional Weather Roundup
Issued by NWS Sioux Falls, SD

Home | Current Version | Previous Version | Graphics & Text | Print | Product List | Glossary On
Versions: 1 2 3 4 5 6 7 8 9 10 11 12 13 14 15 16 17 18 19 20 21 22 23 24 25 26 27 28 29 30 31 32 33 34 35 36 37 38 39 40 41 42 43 44 45 46 47 48 49 50
000
ASUS43 KFSD 050202
RWRFSD

WEATHER ROUNDUP FOR SE SOUTH DAKOTA/SW MINNESOTA/NW IOWA
NATIONAL WEATHER SERVICE SIOUX FALLS SD
900 PM CDT MON MAY 04 2015

NOTE: "FAIR" INDICATES FEW OR NO CLOUDS BELOW 12,000 FEET WITH NO
SIGNIFICANT WEATHER AND OR OBSTRUCTIONS TO VISIBILITY.


SDZ038>040-050-052>070-050300-
SOUTHEAST SOUTH DAKOTA

CITY           SKY/WX    TMP DP  RH WIND       PRES   REMARKS
BROOKINGS      MOCLDY    64  27  24 E12       30.14R
CHAMBERLAIN    NOT AVBL
HURON          MOCLDY    60  28  29 E6        30.10S
MADISON        MOCLDY    63  25  23 E9        30.12S
MITCHELL       CLOUDY    63  30  28 SE7       30.10R
SIOUX FALLS    CLOUDY    62  30  29 E8        30.12R
WINNER         CLOUDY    61  30  31 NE5       30.09S
YANKTON        CLOUDY    63  41  45 SE7       30.10R
$$

MNZ071-072-080-081-089-090-097-098-050300-
SOUTHWEST MINNESOTA

CITY           SKY/WX    TMP DP  RH WIND       PRES   REMARKS
FAIRMONT       MOCLDY    63  28  27 NE10      30.14S
JACKSON        CLOUDY    61  27  27 E9        30.15S
LUVERNE        CLOUDY    61  30  31 E7        30.13R
MARSHALL       MOCLDY    63  25  23 E9        30.14S
MONTEVIDEO     MOCLDY    59  28  31 E8        30.16S
REDWOOD FALLS  MOCLDY    65  27  23 E7        30.15S
TRACY          MOCLDY    65  30  27 SE7       30.15R
WORTHINGTON    CLOUDY    57  27  30 E9        30.15R
$$

IAZ001>003-012>014-020>022-031-032-NEZ013-014-SDZ071-050300-
NORTHWEST IOWA

CITY           SKY/WX    TMP DP  RH WIND       PRES   REMARKS
DENISON        CLOUDY    55  55 100 E9G15     30.08S
ESTHERVILLE    CLOUDY    59  37  44 E9        30.13S
SIOUX CITY     CLOUDY    57  49  74 E5        30.10S
SPENCER        CLOUDY    61  39  44 E9        30.12F
$$

ABBREVIATIONS USED IN REMARKS
   TC - TEMPERATURE IN CELSIUS
  WCI - WIND CHILL INDEX
   HX - HEAT INDEX
  VSB - VISIBILITY



USA.gov is the U.S. government's official web portal to all federal, state and local government web resources and services.